TimeEST,TemperatureF,Dew PointF,Humidity,Sea Level PressureIn,VisibilityMPH,Wind Direction,Wind SpeedMPH,Gust SpeedMPH,PrecipitationIn,Events,Conditions,WindDirDegrees,DateUTC
12:53 AM,37.9,19.0,47,30.07,10.0,South,19.6,29.9,N/A,,Clear,190,2013-01-19 05:53:00
1:53 AM,37.9,19.9,48,30.08,10.0,South,16.1,29.9,N/A,,Clear,180,2013-01-19 06:53:00
2:53 AM,37.9,19.9,48,30.08,10.0,South,17.3,24.2,N/A,,Clear,190,2013-01-19 07:53:00
3:53 AM,37.9,19.9,48,30.06,10.0,South,16.1,23.0,N/A,,Clear,180,2013-01-19 08:53:00
4:53 AM,41.0,19.9,43,30.04,10.0,SSW,23.0,31.1,N/A,,Clear,200,2013-01-19 09:53:00
5:53 AM,41.0,19.9,43,30.05,10.0,SSW,16.1,31.1,N/A,,Clear,200,2013-01-19 10:53:00
6:53 AM,42.1,19.9,41,30.04,10.0,SSW,19.6,33.4,N/A,,Clear,200,2013-01-19 11:53:00
7:53 AM,41.0,21.0,45,30.04,10.0,SSW,24.2,31.1,N/A,,Clear,200,2013-01-19 12:53:00
8:53 AM,42.1,21.9,45,30.04,10.0,SSW,17.3,25.3,N/A,,Clear,210,2013-01-19 13:53:00
9:53 AM,45.0,24.1,44,30.05,10.0,SSW,20.7,27.6,N/A,,Clear,210,2013-01-19 14:53:00
10:53 AM,46.0,25.0,44,30.04,10.0,SSW,21.9,29.9,N/A,,Clear,210,2013-01-19 15:53:00
11:53 AM,48.0,25.0,41,29.99,10.0,SW,21.9,35.7,N/A,,Clear,230,2013-01-19 16:53:00
12:53 PM,51.1,27.0,39,29.94,10.0,SW,18.4,27.6,N/A,,Clear,220,2013-01-19 17:53:00
1:53 PM,51.1,27.0,39,29.90,10.0,SSW,15.0,26.5,N/A,,Clear,210,2013-01-19 18:53:00
2:53 PM,51.1,27.0,39,29.87,10.0,South,23.0,31.1,N/A,,Clear,190,2013-01-19 19:53:00
3:53 PM,51.1,27.0,39,29.83,10.0,SSW,21.9,35.7,N/A,,Clear,210,2013-01-19 20:53:00
4:53 PM,51.1,27.0,39,29.80,10.0,SSW,15.0,29.9,N/A,,Clear,200,2013-01-19 21:53:00
5:53 PM,50.0,25.0,38,29.81,10.0,SW,17.3,23.0,N/A,,Overcast,220,2013-01-19 22:53:00
6:53 PM,48.9,25.0,39,29.80,10.0,SSW,16.1,25.3,N/A,,Clear,210,2013-01-19 23:53:00
7:53 PM,50.0,24.1,36,29.78,10.0,SSW,19.6,29.9,N/A,,Partly Cloudy,200,2013-01-20 00:53:00
8:53 PM,48.9,25.0,39,29.76,10.0,SSW,18.4,26.5,N/A,,Clear,210,2013-01-20 01:53:00
9:53 PM,48.0,25.0,41,29.73,10.0,SSW,19.6,28.8,N/A,,Clear,210,2013-01-20 02:53:00
10:53 PM,48.9,27.0,43,29.71,10.0,SW,21.9,38.0,N/A,,Overcast,220,2013-01-20 03:53:00
11:53 PM,48.0,28.0,46,29.68,10.0,SW,24.2,34.5,N/A,,Partly Cloudy,220,2013-01-20 04:53:00